Location: Freistadt
(48.5112°N, 14.5013°E)
Time: 11:03:40
(UTC+01:00)

N. Korean satellite - Pass Details

Date: 02 December 2022
Orbit: 407 x 444 km, 97.3° (Epoch: 28 January)

Event Time Altitude Azimuth Distance (km) Brightness Sun altitude
Rises 05:46:19 0° 8° (N) 2,524 10.1 -17.1°
Reaches altitude 10° 05:48:24 10° 4° (N) 1,639 9.1 -16.7°
Maximum altitude 05:51:51 53° 287° (WNW) 580 6.5 -16.2°
Drops below altitude 10° 05:55:13 10° 210° (SSW) 1,606 9.0 -15.6°
Sets 05:57:15 0° 205° (SSW) 2,467 10.1 -15.3°
